Showing default

FLOCK 4G 22, 62645

Orbit data source: Space-Track

FLOCK 4G 22, 62645 is a payload satellite owned by Planet (US) in SSO that was launched on Tue, 14 Jan 2025 UTC via an FALCON 9 launch vehicle from the Air Force Western Test Range (AFWTR). Payload-class satellites include a variety of spacecraft equipped with specific instruments for various scientific and technological missions. These include communications satellites like Starlink; space stations such as the ISS; scientific satellites like the Hubble; Earth observation satellites from companies like Planet Labs, Umbra, and HawkEye 360; GPS; miniature CubeSats for education and research; and military/defense satellites.

Loading next visibility...
Identifier
62645, 2025-009AN
Orbit
SSO
Country
Flag of USUS
Related business
Manufacturer
Planet
Mission
Operational Commercial Imaging
Bus & Motor
CUBESAT 3U, Unknown motor
Mass
5.7 kg wet, 5.7 kg dry
Launch date (UTC)
2025-01-14 (9 months ago)
Launch vehicle
FALCON 9
Launch site
Air Force Western Test Range (AFWTR)
Object type
Payload
Rocket body
Debris
Shape & HBR
Box + 2 Pan, 1.0 m
Radar Cross Section
0.072 m², Medium (>0.1 m² and < 1m²)

Expand to show TLE details & history
Last TLE update: 22 hours ago

TLE from 22 hours ago
0 FLOCK 4G 22
1 62645U 25009AN  25300.20825599  .00010014  00000-0  41919-3 0  9992
2 62645  97.4218  19.0171 0003420  64.1733 295.9857 15.23751181 43374
Epoch: 2025-10-27T04:59Z
TLE epoch observation values (Epoch: 2025-10-27T04:59:53.317Z)
Latitude
0.00002°
Longitude
-91.76846°
Altitude
496.603 km
Speed
7.617 km/s
True Right ascension
01h 16m 04s
True Declination
0° 00' 00"
Sunlit
Object was in full shadow at epoch
Visualization orbit readout
Latitude
Unknown
Longitude
Unknown
Altitude
Unknown
Speed
Unknown
Apparent Right ascension
Unknown
Apparent Declination
Unknown
Sunlit
N/A
Visualization observer readout
Local Sidereal Time
22:24:17
Azimuth
Unknown
Elevation
Unknown
Doppler factor
Unknown
Orbital elements
Apogee altitude
493.849 km
Perigee altitude
489.15 km
Semi-major axis
6,869.636 km
Eccentricity
0.00034
Inclination
97.4218°
RAAN
19.0171°
Arg. of periapsis
64.1733°
True anomaly
295.95047°
Mean anomaly
295.9857°
Eccentric anomaly
295.96808°
Mean motion
3.81191 °/min
Orbital period
94.44 mins
BSTAR
0.00041919
Loading maneuver chart data...
Computing Atmospheric mass density...
Loading historical data...
Loading historical data...
Loading historical data...
Loading historical data...
Loading historical data...
Loading historical data...
Loading historical data...

Documentation

Showing up to 5 results
|